| time (UTC) | temp F | wind direction | speed MPH | gust MPH | rain 1hr in | rain 24hr in | rain mn in | humidity % | barometer mb |
| 20260507224228 | 60 | 304 | 6.0 | 8.0 | 0.00 | 0.22 | 0.00 | 35 | 1013.7 |
| 20260507223727 | 60 | 245 | 4.0 | 8.0 | 0.00 | 0.22 | 0.00 | 35 | 1013.7 |
| 20260507223227 | 60 | 235 | 6.0 | 9.0 | 0.00 | 0.22 | 0.00 | 35 | 1013.6 |
| 20260507222726 | 60 | 322 | 5.0 | 12.0 | 0.00 | 0.22 | 0.00 | 35 | 1013.7 |
| 20260507222226 | 60 | 256 | 7.0 | 10.0 | 0.00 | 0.22 | 0.00 | 34 | 1013.7 |
| 20260507221725 | 60 | 323 | 7.0 | 7.0 | 0.00 | 0.22 | 0.00 | 34 | 1013.8 |
| 20260507221225 | 60 | 236 | 3.0 | 9.0 | 0.00 | 0.22 | 0.00 | 36 | 1014.0 |
| 20260507220724 | 60 | 294 | 5.0 | 9.0 | 0.00 | 0.22 | 0.00 | 37 | 1014.0 |
| 20260507220224 | 60 | 11 | 4.0 | 7.0 | 0.00 | 0.22 | 0.00 | 36 | 1014.1 |
| 20260507215722 | 59 | 281 | 5.0 | 11.0 | 0.00 | 0.22 | 0.00 | 37 | 1014.1 |
| 20260507215222 | 59 | 287 | 4.0 | 9.0 | 0.00 | 0.22 | 0.00 | 36 | 1014.1 |
| 20260507214721 | 59 | 263 | 3.0 | 9.0 | 0.00 | 0.22 | 0.00 | 37 | 1014.1 |
| 20260507214221 | 59 | 332 | 2.0 | 9.0 | 0.00 | 0.22 | 0.00 | 37 | 1014.1 |
| 20260507213720 | 59 | 319 | 6.0 | 12.0 | 0.00 | 0.22 | 0.00 | 38 | 1014.1 |
| 20260507213219 | 59 | 287 | 8.0 | 13.0 | 0.00 | 0.22 | 0.00 | 36 | 1014.2 |
| 20260507212719 | 60 | 288 | 7.0 | 14.0 | 0.00 | 0.22 | 0.00 | 35 | 1014.2 |
| 20260507212218 | 60 | 336 | 5.0 | 9.0 | 0.00 | 0.22 | 0.00 | 36 | 1014.2 |
| 20260507211718 | 59 | 235 | 7.0 | 12.0 | 0.00 | 0.22 | 0.00 | 34 | 1014.1 |
| 20260507211217 | 59 | 283 | 6.0 | 13.0 | 0.00 | 0.22 | 0.00 | 35 | 1014.2 |
| 20260507210717 | 59 | 332 | 8.0 | 16.0 | 0.00 | 0.22 | 0.00 | 36 | 1014.2 |
| 20260507210216 | 60 | 301 | 3.0 | 15.0 | 0.00 | 0.22 | 0.00 | 35 | 1014.1 |
| 20260507205716 | 60 | 240 | 3.0 | 11.0 | 0.00 | 0.22 | 0.00 | 35 | 1014.1 |
| 20260507204714 | 59 | 245 | 8.0 | 16.0 | 0.00 | 0.22 | 0.00 | 35 | 1014.0 |
| 20260507204212 | 59 | 233 | 6.0 | 17.0 | 0.00 | 0.22 | 0.00 | 37 | 1014.0 |
| 20260507203712 | 59 | 346 | 1.0 | 12.0 | 0.00 | 0.22 | 0.00 | 35 | 1014.0 |
| 20260507203211 | 59 | 325 | 9.0 | 9.0 | 0.00 | 0.22 | 0.00 | 37 | 1014.0 |
| 20260507202711 | 59 | 314 | 4.0 | 14.0 | 0.00 | 0.22 | 0.00 | 35 | 1014.1 |
| 20260507202210 | 59 | 297 | 6.0 | 16.0 | 0.00 | 0.22 | 0.00 | 35 | 1014.1 |
| 20260507201710 | 59 | 31 | 7.0 | 16.0 | 0.00 | 0.22 | 0.00 | 36 | 1014.2 |
| 20260507200709 | 59 | 318 | 5.0 | 8.0 | 0.00 | 0.22 | 0.00 | 36 | 1014.1 |
| 20260507195707 | 59 | 293 | 7.0 | 18.0 | 0.00 | 0.22 | 0.00 | 38 | 1014.1 |
| 20260507195207 | 59 | 278 | 11.0 | 13.0 | 0.00 | 0.22 | 0.00 | 36 | 1014.2 |
| 20260507194706 | 58 | 325 | 8.0 | 18.0 | 0.00 | 0.22 | 0.00 | 36 | 1014.3 |
| 20260507194206 | 58 | 311 | 5.0 | 12.0 | 0.00 | 0.22 | 0.00 | 38 | 1014.3 |
| 20260507193705 | 58 | 257 | 7.0 | 19.0 | 0.00 | 0.22 | 0.00 | 38 | 1014.5 |
| 20260507193205 | 58 | 298 | 8.0 | 13.0 | 0.00 | 0.22 | 0.00 | 37 | 1014.5 |
| 20260507192704 | 57 | 335 | 9.0 | 14.0 | 0.00 | 0.22 | 0.00 | 36 | 1014.4 |
| 20260507192204 | 58 | 285 | 8.0 | 14.0 | 0.00 | 0.22 | 0.00 | 38 | 1014.4 |
| 20260507191703 | 58 | 294 | 1.0 | 12.0 | 0.00 | 0.22 | 0.00 | 38 | 1014.4 |
| 20260507190202 | 59 | 319 | 6.0 | 13.0 | 0.00 | 0.22 | 0.00 | 37 | 1014.5 |
| 20260507185201 | 58 | 312 | 8.0 | 11.0 | 0.00 | 0.22 | 0.00 | 39 | 1014.6 |
| 20260507184700 | 58 | 347 | 4.0 | 14.0 | 0.00 | 0.22 | 0.00 | 40 | 1014.6 |
| 20260507184200 | 58 | 322 | 5.0 | 14.0 | 0.00 | 0.22 | 0.00 | 39 | 1014.5 |
| 20260507183659 | 57 | 319 | 11.0 | 18.0 | 0.00 | 0.22 | 0.00 | 39 | 1014.7 |
| 20260507183157 | 58 | 298 | 9.0 | 14.0 | 0.00 | 0.22 | 0.00 | 38 | 1014.8 |
| 20260507182656 | 57 | 300 | 8.0 | 14.0 | 0.00 | 0.22 | 0.00 | 39 | 1014.6 |
| 20260507182155 | 57 | 302 | 9.0 | 19.0 | 0.00 | 0.22 | 0.00 | 41 | 1014.7 |
| 20260507181655 | 56 | 298 | 13.0 | 15.0 | 0.00 | 0.22 | 0.00 | 40 | 1014.8 |
| 20260507181155 | 56 | 291 | 6.0 | 15.0 | 0.00 | 0.22 | 0.00 | 41 | 1014.7 |
| 20260507180654 | 56 | 318 | 9.0 | 18.0 | 0.00 | 0.22 | 0.00 | 41 | 1014.7 |
| 20260507180153 | 57 | 301 | 5.0 | 16.0 | 0.00 | 0.22 | 0.00 | 38 | 1014.8 |
| 20260507175653 | 57 | 305 | 9.0 | 16.0 | 0.00 | 0.22 | 0.00 | 38 | 1014.9 |
| 20260507175152 | 57 | 325 | 10.0 | 17.0 | 0.00 | 0.22 | 0.00 | 40 | 1015.0 |
| 20260507174652 | 56 | 293 | 12.0 | 20.0 | 0.00 | 0.22 | 0.00 | 39 | 1015.0 |
| 20260507174151 | 57 | 293 | 8.0 | 15.0 | 0.00 | 0.22 | 0.00 | 41 | 1015.0 |
| 20260507173651 | 57 | 308 | 6.0 | 14.0 | 0.00 | 0.22 | 0.00 | 41 | 1015.0 |
| 20260507173150 | 57 | 305 | 8.0 | 15.0 | 0.00 | 0.22 | 0.00 | 40 | 1015.1 |
| 20260507172650 | 56 | 283 | 4.0 | 15.0 | 0.00 | 0.22 | 0.00 | 41 | 1015.2 |
| 20260507172149 | 56 | 249 | 10.0 | 14.0 | 0.00 | 0.22 | 0.00 | 40 | 1015.3 |
| 20260507171649 | 56 | 266 | 9.0 | 16.0 | 0.00 | 0.22 | 0.00 | 40 | 1015.4 |
| 20260507171148 | 56 | 281 | 12.0 | 15.0 | 0.00 | 0.22 | 0.00 | 39 | 1015.4 |
| 20260507170648 | 55 | 14 | 5.0 | 14.0 | 0.00 | 0.22 | 0.00 | 42 | 1015.3 |
| 20260507170147 | 55 | 304 | 9.0 | 17.0 | 0.00 | 0.22 | 0.00 | 42 | 1015.5 |
| 20260507165647 | 55 | 280 | 13.0 | 18.0 | 0.00 | 0.22 | 0.00 | 42 | 1015.6 |
| 20260507165146 | 55 | 293 | 12.0 | 18.0 | 0.00 | 0.22 | 0.00 | 41 | 1015.5 |
| 20260507164646 | 54 | 281 | 8.0 | 18.0 | 0.00 | 0.22 | 0.00 | 42 | 1015.5 |
| 20260507164145 | 55 | 263 | 13.0 | 21.0 | 0.00 | 0.22 | 0.00 | 39 | 1015.7 |
| 20260507163644 | 55 | 354 | 5.0 | 14.0 | 0.00 | 0.22 | 0.00 | 41 | 1015.7 |
| 20260507163144 | 54 | 311 | 10.0 | 16.0 | 0.00 | 0.22 | 0.00 | 40 | 1015.8 |
| 20260507162143 | 54 | 308 | 9.0 | 15.0 | 0.00 | 0.22 | 0.00 | 42 | 1015.8 |
| 20260507161642 | 54 | 336 | 9.0 | 14.0 | 0.00 | 0.22 | 0.00 | 41 | 1015.9 |
| 20260507161142 | 53 | 252 | 6.0 | 15.0 | 0.00 | 0.22 | 0.00 | 43 | 1015.8 |
| 20260507160141 | 54 | 314 | 7.0 | 14.0 | 0.00 | 0.22 | 0.00 | 44 | 1015.8 |
| 20260507155640 | 54 | 305 | 4.0 | 12.0 | 0.00 | 0.22 | 0.00 | 44 | 1015.8 |
| 20260507155140 | 53 | 288 | 6.0 | 10.0 | 0.00 | 0.22 | 0.00 | 43 | 1015.8 |
| 20260507154139 | 53 | 297 | 7.0 | 15.0 | 0.00 | 0.22 | 0.00 | 45 | 1015.8 |
| 20260507153638 | 53 | 281 | 9.0 | 14.0 | 0.00 | 0.22 | 0.00 | 44 | 1015.8 |
| 20260507153138 | 53 | 269 | 9.0 | 14.0 | 0.00 | 0.22 | 0.00 | 43 | 1015.8 |
| 20260507152637 | 53 | 298 | 7.0 | 14.0 | 0.00 | 0.22 | 0.00 | 42 | 1015.8 |
| 20260507152137 | 52 | 318 | 10.0 | 18.0 | 0.00 | 0.22 | 0.00 | 42 | 1015.7 |
| 20260507151636 | 52 | 256 | 10.0 | 16.0 | 0.00 | 0.22 | 0.00 | 42 | 1015.6 |
| 20260507151136 | 53 | 288 | 5.0 | 17.0 | 0.00 | 0.22 | 0.00 | 42 | 1015.7 |
| 20260507150635 | 52 | 305 | 4.0 | 10.0 | 0.00 | 0.22 | 0.00 | 44 | 1015.6 |
| 20260507150135 | 52 | 347 | 7.0 | 12.0 | 0.00 | 0.22 | 0.00 | 43 | 1015.6 |
| 20260507145634 | 51 | 283 | 8.0 | 14.0 | 0.00 | 0.22 | 0.00 | 42 | 1015.6 |
| 20260507145134 | 52 | 318 | 4.0 | 12.0 | 0.00 | 0.22 | 0.00 | 43 | 1015.6 |
| 20260507144132 | 52 | 357 | 7.0 | 11.0 | 0.00 | 0.22 | 0.00 | 43 | 1015.6 |
| 20260507143632 | 52 | 281 | 4.0 | 15.0 | 0.00 | 0.22 | 0.00 | 45 | 1015.7 |
| 20260507142631 | 51 | 276 | 5.0 | 13.0 | 0.00 | 0.22 | 0.00 | 45 | 1015.7 |
| 20260507142130 | 51 | 287 | 6.0 | 13.0 | 0.00 | 0.22 | 0.00 | 43 | 1015.7 |
| 20260507140628 | 50 | 311 | 8.0 | 10.0 | 0.00 | 0.22 | 0.00 | 48 | 1015.8 |
| 20260507133623 | 50 | 255 | 6.0 | 11.0 | 0.00 | 0.22 | 0.00 | 46 | 1015.6 |
| 20260507133123 | 51 | 354 | 6.0 | 11.0 | 0.00 | 0.22 | 0.00 | 46 | 1015.6 |
| 20260507132622 | 50 | 319 | 5.0 | 9.0 | 0.00 | 0.22 | 0.00 | 49 | 1015.7 |
| 20260507131621 | 49 | 328 | 8.0 | 11.0 | 0.00 | 0.22 | 0.00 | 49 | 1015.6 |
| 20260507131120 | 50 | 346 | 1.0 | 11.0 | 0.00 | 0.22 | 0.00 | 50 | 1015.7 |
| 20260507130619 | 50 | 356 | 5.0 | 11.0 | 0.00 | 0.22 | 0.00 | 50 | 1015.7 |
| 20260507130119 | 49 | 340 | 4.0 | 8.0 | 0.00 | 0.22 | 0.00 | 51 | 1015.6 |
| 20260507125118 | 49 | 277 | 4.0 | 9.0 | 0.00 | 0.22 | 0.00 | 54 | 1015.7 |
| 20260507124617 | 49 | 287 | 5.0 | 8.0 | 0.00 | 0.22 | 0.00 | 57 | 1015.8 |
| 20260507123116 | 48 | 295 | 2.0 | 8.0 | 0.00 | 0.22 | 0.00 | 61 | 1015.7 |
| 20260507122115 | 47 | 290 | 1.0 | 8.0 | 0.00 | 0.22 | 0.00 | 63 | 1015.7 |
| 20260507121614 | 47 | 242 | 3.0 | 4.0 | 0.00 | 0.22 | 0.00 | 64 | 1015.7 |
| 20260507120113 | 46 | 231 | 0.0 | 0.0 | 0.00 | 0.22 | 0.00 | 67 | 1015.7 |
| 20260507115612 | 46 | 231 | 0.0 | 0.0 | 0.00 | 0.22 | 0.00 | 69 | 1015.6 |
| 20260507114610 | 45 | 231 | 0.0 | 0.0 | 0.00 | 0.22 | 0.00 | 71 | 1015.7 |
| 20260507114110 | 45 | 231 | 0.0 | 0.0 | 0.00 | 0.22 | 0.00 | 71 | 1015.7 |
| 20260507113609 | 44 | 231 | 0.0 | 0.0 | 0.00 | 0.22 | 0.00 | 73 | 1015.7 |
| 20260507113109 | 44 | 231 | 0.0 | 0.0 | 0.00 | 0.22 | 0.00 | 73 | 1015.8 |
| 20260507112610 | 43 | 231 | 0.0 | 0.0 | 0.00 | 0.22 | 0.00 | 75 | 1015.7 |
| 20260507112107 | 43 | 231 | 0.0 | 1.0 | 0.00 | 0.22 | 0.00 | 77 | 1015.6 |
| 20260507111607 | 43 | 277 | 0.0 | 0.0 | 0.00 | 0.22 | 0.00 | 78 | 1015.5 |
| 20260507111107 | 42 | 277 | 0.0 | 0.0 | 0.00 | 0.22 | 0.00 | 78 | 1015.4 |
| 20260507110606 | 42 | 277 | 0.0 | 0.0 | 0.00 | 0.22 | 0.00 | 79 | 1015.4 |
| 20260507110105 | 42 | 277 | 0.0 | 0.0 | 0.00 | 0.22 | 0.00 | 78 | 1015.3 |
| 20260507105605 | 42 | 277 | 0.0 | 0.0 | 0.00 | 0.22 | 0.00 | 78 | 1015.3 |
| 20260507105104 | 43 | 277 | 0.0 | 0.0 | 0.00 | 0.22 | 0.00 | 77 | 1015.2 |
| 20260507104602 | 43 | 277 | 0.0 | 0.0 | 0.00 | 0.22 | 0.00 | 77 | 1015.2 |
| 20260507103100 | 43 | 277 | 0.0 | 0.0 | 0.00 | 0.22 | 0.00 | 77 | 1015.0 |
| 20260507102600 | 43 | 277 | 0.0 | 0.0 | 0.00 | 0.22 | 0.00 | 77 | 1015.1 |
| 20260507102059 | 43 | 277 | 0.0 | 1.0 | 0.00 | 0.22 | 0.00 | 76 | 1015.1 |
| 20260507101559 | 43 | 350 | 0.0 | 0.0 | 0.00 | 0.22 | 0.00 | 76 | 1015.1 |
| 20260507101056 | 43 | 350 | 0.0 | 0.0 | 0.00 | 0.22 | 0.00 | 76 | 1015.1 |
| 20260507100556 | 44 | 350 | 0.0 | 0.0 | 0.00 | 0.22 | 0.00 | 76 | 1015.0 |
| 20260507100055 | 44 | 350 | 0.0 | 0.0 | 0.00 | 0.22 | 0.00 | 76 | 1015.0 |
| 20260507095553 | 44 | 350 | 0.0 | 0.0 | 0.00 | 0.22 | 0.00 | 76 | 1015.0 |
| 20260507095053 | 44 | 350 | 0.0 | 0.0 | 0.00 | 0.22 | 0.00 | 77 | 1015.0 |
| 20260507094052 | 44 | 350 | 0.0 | 2.0 | 0.00 | 0.22 | 0.00 | 78 | 1015.0 |
| 20260507093051 | 44 | 356 | 0.0 | 0.0 | 0.00 | 0.22 | 0.00 | 78 | 1015.0 |
| 20260507092550 | 44 | 356 | 0.0 | 1.0 | 0.00 | 0.22 | 0.00 | 78 | 1014.9 |
| 20260507092050 | 44 | 356 | 1.0 | 5.0 | 0.00 | 0.22 | 0.00 | 77 | 1014.8 |
| 20260507091548 | 44 | 343 | 3.0 | 4.0 | 0.00 | 0.22 | 0.00 | 77 | 1014.9 |
| 20260507091048 | 44 | 321 | 3.0 | 5.0 | 0.00 | 0.22 | 0.00 | 79 | 1014.8 |
| 20260507090547 | 44 | 321 | 1.0 | 3.0 | 0.00 | 0.22 | 0.00 | 80 | 1014.8 |
| 20260507090047 | 44 | 332 | 0.0 | 3.0 | 0.00 | 0.22 | 0.00 | 81 | 1014.7 |
| 20260507085544 | 44 | 330 | 2.0 | 3.0 | 0.00 | 0.22 | 0.00 | 81 | 1014.8 |
| 20260507084543 | 44 | 326 | 0.0 | 0.0 | 0.00 | 0.22 | 0.00 | 81 | 1014.7 |
| 20260507084043 | 44 | 326 | 0.0 | 0.0 | 0.00 | 0.22 | 0.00 | 81 | 1014.7 |
| 20260507083542 | 44 | 326 | 0.0 | 0.0 | 0.00 | 0.22 | 0.00 | 81 | 1014.6 |
| 20260507082541 | 45 | 326 | 0.0 | 0.0 | 0.00 | 0.22 | 0.00 | 81 | 1014.5 |
| 20260507082041 | 45 | 326 | 0.0 | 0.0 | 0.00 | 0.22 | 0.00 | 81 | 1014.6 |
| 20260507081540 | 45 | 326 | 0.0 | 0.0 | 0.00 | 0.22 | 0.00 | 82 | 1014.5 |
| 20260507081040 | 45 | 326 | 0.0 | 0.0 | 0.00 | 0.22 | 0.00 | 82 | 1014.6 |
| 20260507080539 | 45 | 326 | 0.0 | 0.0 | 0.00 | 0.22 | 0.00 | 82 | 1014.6 |
| 20260507080038 | 45 | 326 | 0.0 | 0.0 | 0.00 | 0.22 | 0.00 | 82 | 1014.6 |
| 20260507075538 | 45 | 326 | 0.0 | 0.0 | 0.00 | 0.22 | 0.00 | 82 | 1014.6 |
| 20260507075037 | 45 | 326 | 0.0 | 0.0 | 0.00 | 0.22 | 0.00 | 82 | 1014.6 |
| 20260507074537 | 45 | 326 | 0.0 | 0.0 | 0.00 | 0.22 | 0.00 | 82 | 1014.5 |
| 20260507074036 | 45 | 326 | 0.0 | 4.0 | 0.00 | 0.22 | 0.00 | 82 | 1014.5 |
| 20260507073536 | 45 | 326 | 0.0 | 0.0 | 0.00 | 0.22 | 0.00 | 83 | 1014.6 |
| 20260507073035 | 45 | 249 | 0.0 | 0.0 | 0.00 | 0.22 | 0.00 | 84 | 1014.6 |
| 20260507072535 | 45 | 249 | 0.0 | 0.0 | 0.00 | 0.22 | 0.00 | 85 | 1014.5 |
| 20260507072035 | 45 | 249 | 0.0 | 0.0 | 0.00 | 0.22 | 0.00 | 85 | 1014.5 |
| 20260507071534 | 46 | 249 | 0.0 | 0.0 | 0.00 | 0.22 | 0.00 | 85 | 1014.6 |
| 20260507071033 | 46 | 249 | 0.0 | 0.0 | 0.00 | 0.22 | 0.00 | 85 | 1014.6 |
| 20260507070533 | 46 | 249 | 0.0 | 0.0 | 0.00 | 0.22 | 0.00 | 85 | 1014.6 |
| 20260507070032 | 46 | 249 | 0.0 | 0.0 | 0.00 | 0.22 | 0.00 | 85 | 1014.6 |
| 20260507065532 | 46 | 249 | 0.0 | 0.0 | 0.00 | 0.22 | 0.00 | 86 | 1014.6 |
| 20260507065031 | 46 | 249 | 0.0 | 0.0 | 0.00 | 0.22 | 0.00 | 87 | 1014.6 |
| 20260507064531 | 45 | 249 | 0.0 | 0.0 | 0.00 | 0.22 | 0.00 | 87 | 1014.8 |
| 20260507064029 | 45 | 249 | 0.0 | 0.0 | 0.00 | 0.22 | 0.00 | 88 | 1014.7 |
| 20260507063529 | 45 | 249 | 0.0 | 0.0 | 0.00 | 0.22 | 0.00 | 89 | 1014.7 |
| 20260507063028 | 46 | 249 | 0.0 | 0.0 | 0.00 | 0.22 | 0.00 | 89 | 1014.8 |
| 20260507062528 | 46 | 249 | 0.0 | 0.0 | 0.00 | 0.22 | 0.00 | 89 | 1014.8 |
| 20260507062027 | 46 | 249 | 0.0 | 0.0 | 0.00 | 0.22 | 0.00 | 89 | 1014.7 |
| 20260507061525 | 46 | 249 | 0.0 | 0.0 | 0.00 | 0.22 | 0.00 | 89 | 1014.8 |
| 20260507060524 | 46 | 249 | 0.0 | 0.0 | 0.00 | 0.22 | 0.00 | 89 | 1014.8 |
| 20260507055523 | 46 | 249 | 0.0 | 0.0 | 0.00 | 0.22 | 0.00 | 89 | 1014.8 |
| 20260507055023 | 46 | 249 | 0.0 | 0.0 | 0.00 | 0.22 | 0.00 | 89 | 1014.7 |
| 20260507054522 | 47 | 249 | 0.0 | 0.0 | 0.00 | 0.22 | 0.00 | 88 | 1014.9 |
| 20260507053521 | 47 | 249 | 0.0 | 0.0 | 0.00 | 0.22 | 0.00 | 89 | 1014.8 |
| 20260507053021 | 47 | 249 | 0.0 | 0.0 | 0.00 | 0.22 | 0.00 | 89 | 1014.8 |
| 20260507052520 | 47 | 249 | 0.0 | 0.0 | 0.00 | 0.22 | 0.00 | 88 | 1014.8 |
| 20260507052020 | 47 | 249 | 0.0 | 0.0 | 0.00 | 0.22 | 0.00 | 88 | 1014.9 |
| 20260507051019 | 48 | 249 | 0.0 | 0.0 | 0.00 | 0.22 | 0.00 | 87 | 1015.0 |
| 20260507050018 | 48 | 249 | 0.0 | 0.0 | 0.00 | 0.22 | 0.00 | 87 | 1015.1 |
| 20260507045517 | 48 | 249 | 0.0 | 0.0 | 0.00 | 0.82 | 0.22 | 86 | 1015.1 |
| 20260507045016 | 48 | 249 | 0.0 | 0.0 | 0.00 | 0.82 | 0.22 | 85 | 1015.1 |
| 20260507044516 | 48 | 249 | 0.0 | 0.0 | 0.00 | 0.82 | 0.22 | 84 | 1015.1 |
| 20260507044015 | 48 | 249 | 0.0 | 0.0 | 0.00 | 0.82 | 0.22 | 84 | 1015.0 |
| 20260507043515 | 48 | 249 | 0.0 | 0.0 | 0.00 | 0.82 | 0.22 | 83 | 1014.9 |
| 20260507042012 | 49 | 249 | 0.0 | 0.0 | 0.00 | 0.82 | 0.22 | 82 | 1014.9 |
| 20260507041512 | 49 | 249 | 0.0 | 0.0 | 0.00 | 0.82 | 0.22 | 82 | 1014.9 |
| 20260507040511 | 49 | 249 | 0.0 | 0.0 | 0.00 | 0.82 | 0.22 | 81 | 1014.8 |
| 20260507040010 | 49 | 249 | 0.0 | 0.0 | 0.00 | 0.82 | 0.22 | 81 | 1014.7 |
| 20260507035510 | 49 | 249 | 0.0 | 0.0 | 0.00 | 0.82 | 0.22 | 81 | 1014.7 |
| 20260507035009 | 49 | 249 | 0.0 | 0.0 | 0.00 | 0.82 | 0.22 | 81 | 1014.7 |
| 20260507034509 | 49 | 249 | 0.0 | 0.0 | 0.00 | 0.82 | 0.22 | 80 | 1014.8 |
| 20260507034008 | 49 | 249 | 0.0 | 0.0 | 0.00 | 0.82 | 0.22 | 79 | 1014.9 |
| 20260507033508 | 49 | 249 | 0.0 | 0.0 | 0.00 | 0.82 | 0.22 | 79 | 1014.7 |
| 20260507033007 | 49 | 249 | 0.0 | 0.0 | 0.00 | 0.82 | 0.22 | 79 | 1014.7 |
| 20260507032507 | 50 | 249 | 0.0 | 0.0 | 0.00 | 0.82 | 0.22 | 79 | 1014.7 |
| 20260507031506 | 50 | 249 | 0.0 | 0.0 | 0.00 | 0.82 | 0.22 | 79 | 1014.8 |
| 20260507031005 | 50 | 249 | 0.0 | 0.0 | 0.00 | 0.82 | 0.22 | 78 | 1014.8 |
| 20260507030505 | 50 | 249 | 0.0 | 0.0 | 0.00 | 0.82 | 0.22 | 78 | 1014.9 |
| 20260507025503 | 50 | 249 | 0.0 | 0.0 | 0.00 | 0.82 | 0.22 | 77 | 1014.9 |
| 20260507025003 | 50 | 249 | 0.0 | 0.0 | 0.00 | 0.82 | 0.22 | 77 | 1015.0 |
| 20260507024502 | 50 | 249 | 0.0 | 0.0 | 0.00 | 0.82 | 0.22 | 77 | 1015.0 |
| 20260507024002 | 51 | 249 | 0.0 | 0.0 | 0.00 | 0.82 | 0.22 | 75 | 1014.9 |
| 20260507023501 | 51 | 249 | 0.0 | 0.0 | 0.00 | 0.82 | 0.22 | 75 | 1015.0 |
| 20260507023001 | 51 | 249 | 0.0 | 0.0 | 0.00 | 0.82 | 0.22 | 74 | 1014.9 |
| 20260507022500 | 51 | 249 | 0.0 | 0.0 | 0.00 | 0.82 | 0.22 | 72 | 1015.0 |
| 20260507022000 | 52 | 249 | 0.0 | 0.0 | 0.00 | 0.82 | 0.22 | 71 | 1015.0 |
| 20260507021459 | 52 | 249 | 0.0 | 0.0 | 0.00 | 0.82 | 0.22 | 70 | 1014.8 |
| 20260507020959 | 53 | 249 | 0.0 | 0.0 | 0.00 | 0.82 | 0.22 | 69 | 1014.8 |
| 20260507020458 | 53 | 249 | 0.0 | 0.0 | 0.00 | 0.82 | 0.22 | 68 | 1014.6 |
| 20260507015958 | 53 | 249 | 0.0 | 0.0 | 0.00 | 0.82 | 0.22 | 67 | 1014.6 |
| 20260507015457 | 53 | 249 | 0.0 | 0.0 | 0.00 | 0.82 | 0.22 | 66 | 1014.6 |
| 20260507014956 | 53 | 249 | 0.0 | 0.0 | 0.00 | 0.82 | 0.22 | 65 | 1014.6 |
| 20260507014455 | 54 | 249 | 0.0 | 0.0 | 0.00 | 0.82 | 0.22 | 65 | 1014.4 |
| 20260507013955 | 54 | 249 | 0.0 | 0.0 | 0.00 | 0.82 | 0.22 | 64 | 1014.4 |
| 20260507013454 | 54 | 249 | 0.0 | 0.0 | 0.00 | 0.82 | 0.22 | 63 | 1014.3 |
| 20260507012953 | 54 | 249 | 0.0 | 0.0 | 0.00 | 0.82 | 0.22 | 64 | 1014.3 |
| 20260507012453 | 54 | 249 | 0.0 | 0.0 | 0.00 | 0.82 | 0.22 | 63 | 1014.3 |
| 20260507011952 | 54 | 249 | 0.0 | 0.0 | 0.00 | 0.82 | 0.22 | 62 | 1014.3 |
| 20260507010450 | 56 | 249 | 0.0 | 0.0 | 0.00 | 0.82 | 0.22 | 59 | 1014.3 |
| 20260507005949 | 56 | 249 | 0.0 | 0.0 | 0.00 | 0.82 | 0.22 | 58 | 1014.1 |
| 20260507005449 | 56 | 249 | 0.0 | 0.0 | 0.00 | 0.82 | 0.22 | 57 | 1014.3 |
| 20260507004949 | 56 | 249 | 0.0 | 4.0 | 0.00 | 0.82 | 0.22 | 56 | 1014.2 |
| 20260507004448 | 56 | 249 | 0.0 | 5.0 | 0.00 | 0.82 | 0.22 | 56 | 1014.2 |
| 20260507002945 | 57 | 301 | 0.0 | 4.0 | 0.00 | 0.82 | 0.22 | 54 | 1013.7 |
| 20260507002445 | 57 | 301 | 0.0 | 0.0 | 0.00 | 0.82 | 0.22 | 54 | 1013.8 |
| 20260507001943 | 57 | 273 | 0.0 | 4.0 | 0.00 | 0.82 | 0.22 | 54 | 1013.7 |
| 20260507001443 | 57 | 273 | 0.0 | 5.0 | 0.00 | 0.82 | 0.22 | 53 | 1013.6 |
| 20260507000442 | 56 | 288 | 0.0 | 2.0 | 0.00 | 0.82 | 0.22 | 53 | 1013.5 |
| 20260506235941 | 57 | 314 | 0.0 | 5.0 | 0.00 | 0.82 | 0.22 | 52 | 1013.6 |
| 20260506234940 | 57 | 290 | 3.0 | 11.0 | 0.00 | 0.82 | 0.22 | 51 | 1013.6 |
| 20260506234440 | 57 | 269 | 5.0 | 9.0 | 0.00 | 0.82 | 0.22 | 51 | 1013.6 |
| 20260506233438 | 57 | 297 | 7.0 | 7.0 | 0.00 | 0.82 | 0.22 | 52 | 1013.4 |
| 20260506232938 | 57 | 349 | 6.0 | 5.0 | 0.00 | 0.82 | 0.22 | 51 | 1013.4 |
| 20260506232437 | 58 | 328 | 3.0 | 7.0 | 0.00 | 0.82 | 0.22 | 50 | 1013.3 |
| 20260506231937 | 57 | 329 | 5.0 | 9.0 | 0.00 | 0.82 | 0.22 | 50 | 1013.3 |
| 20260506231436 | 57 | 285 | 6.0 | 7.0 | 0.00 | 0.82 | 0.22 | 51 | 1013.4 |
| 20260506230936 | 57 | 297 | 3.0 | 11.0 | 0.00 | 0.82 | 0.22 | 51 | 1013.4 |
| 20260506230435 | 57 | 343 | 6.0 | 10.0 | 0.00 | 0.82 | 0.22 | 51 | 1013.5 |
| 20260506225935 | 57 | 329 | 1.0 | 11.0 | 0.00 | 0.82 | 0.22 | 50 | 1013.5 |
| 20260506225434 | 58 | 298 | 4.0 | 7.0 | 0.00 | 0.82 | 0.22 | 50 | 1013.4 |